This is the latest recevied weather packets stored in our database for station/object WA2TQI. If no packets are shown the sender has not sent any weather packets the latest 10 day(s).
| Time | Temp. | Humidity | Pressure | Rain* | Wind** | Luminosity | Snow |
|---|---|---|---|---|---|---|---|
| 1778137986 | 10.56° C | 99% | 1012 hPa | 0 mm | - | - | - |
| 1778137682 | 11.11° C | 99% | 1011.8 hPa | 0 mm | - | - | - |
| 1778137380 | 11.11° C | 99% | 1011.7 hPa | 0 mm | - | - | - |
| 1778137076 | 11.11° C | 99% | 1011.7 hPa | 0 mm | - | - | - |
| 1778136773 | 11.11° C | 99% | 1011.4 hPa | 0 mm | - | - | - |
| 1778136470 | 11.11° C | 99% | 1011.5 hPa | 0 mm | - | - | - |
| 1778136169 | 11.11° C | 99% | 1011.5 hPa | 0 mm | - | - | - |
| 1778135866 | 11.67° C | 99% | 1011.4 hPa | 0 mm | - | - | - |
| 1778135563 | 11.67° C | 99% | 1011 hPa | 0 mm | - | - | - |
| 1778135260 | 11.67° C | 99% | 1011.1 hPa | 0 mm | - | - | - |
| 1778134957 | 11.67° C | 99% | 1011.3 hPa | 0 mm | - | - | - |
| 1778134655 | 12.22° C | 99% | 1011.3 hPa | 1.78 mm | - | - | - |
| 1778134352 | 12.22° C | 99% | 1011.4 hPa | 1.78 mm | - | - | - |
| 1778134051 | 12.22° C | 99% | 1011.6 hPa | 0 mm | - | - | - |
| 1778133747 | 12.78° C | 99% | 1011.5 hPa | 4.32 mm | - | - | - |
| 1778133443 | 12.78° C | 99% | 1011.4 hPa | 6.1 mm | - | - | - |
| 1778133139 | 13.33° C | 98% | 1011.6 hPa | 1.78 mm | - | - | - |
| 1778132835 | 13.33° C | 95% | 1011.3 hPa | 0 mm | - | - | - |
| 1778132532 | 13.89° C | 94% | 1011.3 hPa | 0 mm | - | - | - |
| 1778132230 | 13.89° C | 94% | 1010.5 hPa | 0 mm | - | - | - |
| 1778131927 | 13.89° C | 95% | 1010.4 hPa | 0 mm | - | - | - |
| 1778131626 | 13.89° C | 95% | 1011.3 hPa | 0 mm | - | - | - |
| 1778131321 | 13.89° C | 96% | 1010.9 hPa | 0 mm | - | - | - |
| 1778131020 | 14.44° C | 96% | 1010.9 hPa | 0 mm | - | - | - |
| 1778130716 | 14.44° C | 95% | 1010.9 hPa | 0 mm | - | - | - |
* Rain latest hour (hover to see other rain measurements)
** Current wind speed in m/s (hover to see current wind gust speed)